Flag for Greenland Weather past 2 weeks in Danmarkshavn, Greenland

Now
-5 °F

Clear.


Feels Like: -17 °F
Forecast: -5 / 5 °F
Wind: 6 mph from Northwest

Location: Danmarkshavn


UV Index: 0 (Low)

Visibility: 31 mi


Pressure: 29.79 "Hg

Humidity: 83%

Dew point: -9 °F

Location of DanmarkshavnLocation

Historic Weather in Danmarkshavn

°F

Danmarkshavn temperature yesterday

Maximum temperature yesterday: 4 °F (at 1:00 AM)
Minimum temperature yesterday: -3 °F (at 11:00 PM)
Average temperature yesterday: 2 °F

Past Weeks' High & Low Weather Summary

 TemperatureHumidityPressure
High8 °F (Apr 14, 6:00 PM)88% (Apr 16, 5:00 AM)30.22 "Hg (Apr 16, 5:00 AM)
Low-25 °F (Apr 12, 6:00 AM)50% (Apr 5, 5:00 AM)29.47 "Hg (Apr 15, 3:00 PM)
Average-5 °F73%29.89 "Hg
* Reported Apr 2 1:00 AM — Apr 17 1:00 AM, Danmarkshavn, Weather by CustomWeather, © 2014

Note: Actual official high and low records may vary slightly from our data, if they occured in-between our weather recording intervals... More about our weather records

Advertising

Historic Weather Conditions — Data for Previous 24 hours

 ConditionsComfort  
Time TempWeatherWind HumidityBarometerVisibility
1:00 AM
Apr 17
-5 °FClear.6 mph83%29.79 "Hg31 mi
12:00 AM-4 °FClear.7 mph83%29.78 "Hg28 mi
11:00 PM
Apr 16
-3 °FClear.12 mph84%29.78 "Hg25 mi
10:00 PM-3 °FSunny.13 mph85%29.78 "Hg25 mi
9:00 PM-3 °FSunny.17 mph84%29.78 "Hg18 mi
8:00 PM-1 °FSunny.8 mph85%29.79 "Hg25 mi
7:00 PM0 °FSunny.8 mph86%29.80 "Hg18 mi
6:00 PM1 °FSunny.13 mph86%29.80 "Hg19 mi
5:00 PM1 °FSunny.9 mph87%29.80 "Hg19 mi
4:00 PM3 °FSunny.13 mph87%29.80 "Hg19 mi
3:00 PM3 °FSunny.15 mph87%29.80 "Hg14 mi
2:00 PM3 °FFog.21 mph87%29.80 "Hg3 mi
1:00 PM4 °FFog.21 mph88%29.80 "Hg1 mi
12:00 PM4 °FLow clouds.16 mph88%29.81 "Hg5 mi
11:00 AM2 °FSnow flurries. Sunny.24 mph87%29.76 "Hg1 mi
10:00 AM3 °FSunny.26 mph87%29.76 "Hg1 mi
9:00 AM3 °FSleet. Partly sunny.32 mph87%29.72 "Hg0 mi
8:00 AM4 °FLow clouds.39 mph88%29.67 "HgN/A
7:00 AM4 °FScattered clouds.39 mph88%29.67 "HgN/A
6:00 AM3 °FSnow. Low clouds.14 mph88%29.71 "Hg0 mi
5:00 AM3 °FSnow. Partly sunny.22 mph88%29.68 "Hg0 mi
4:00 AM2 °FSnow flurries. Scattered clouds.13 mph86%29.67 "Hg1 mi
3:00 AM2 °FFog.16 mph76%29.65 "Hg4 mi
2:00 AM4 °FPassing clouds.13 mph71%29.62 "Hg31 mi
Weather by CustomWeather, © 2014

See weather overview